OpenBCM V1.13 (Linux)

Packet Radio Mailbox

DB0FHN

[JN59NK Nuernberg]

 Login: GUEST





  
CX2SA  > KEPS     16.09.22 05:16l 605 Lines 29566 Bytes #999 (0) @ WW
BID : ORB22258.N
Read: DJ6UX GUEST
Subj: 2Line Orbital Elements 22258.AMSAT
Path: DB0FHN<DB0RBS<DB0ERF<DK0WUE<PE1RRR<PI8ZTM<CX2SA
Sent: 220916/0306Z @:CX2SA.SAL.URY.SOAM #:16137 [Salto] FBB7.00e $:ORB22258.N
From: CX2SA@CX2SA.SAL.URY.SOAM
To  : KEPS@AMSAT


HR AMSAT ORBITAL ELEMENTS FOR AMATEUR SATELLITES IN NASA FORMAT
FROM WA5QGD FORT WORTH,TX September 15, 2022
BID: ORB22258.N

DECODE 2-LINE ELSETS WITH THE FOLLOWING KEY:
1 AAAAAU 00  0  0 BBBBB.BBBBBBBB  .CCCCCCCC  00000-0  00000-0 0  DDDZ
2 AAAAA EEE.EEEE FFF.FFFF GGGGGGG HHH.HHHH III.IIII JJ.JJJJJJJJKKKKKZ
KEY: A-CATALOGNUM B-EPOCHTIME C-DECAY D-ELSETNUM E-INCLINATION F-RAAN
G-ECCENTRICITY H-ARGPERIGEE I-MNANOM J-MNMOTION K-ORBITNUM Z-CHECKSUM

TO ALL RADIO AMATEURS BT

AO-07
1 07530U 74089B   22258.52729475 -.00000036  00000-0  59789-4 0  9995
2 07530 101.9145 238.7102 0011859 228.8057 250.6431 12.53656909188753
UO-11
1 14781U 84021B   22258.54978452  .00001114  00000-0  14053-3 0  9992
2 14781  97.6258 241.9190 0009239  34.7180 325.4636 14.83798904 53406
LO-19
1 20442U 90005G   22258.44776207  .00000153  00000-0  72403-4 0  9991
2 20442  98.8038 224.7251 0010603 264.6876  95.3098 14.33084929705999
HUBBLE
1 20580U 90037B   22258.48208944  .00003329  00000-0  18426-3 0  9993
2 20580  28.4701 292.1290 0002223 287.4344 214.9044 15.10873000579847
MET-2/21
1 22782U 93055A   22258.59810278  .00000077  00000-0  55759-4 0  9991
2 22782  82.5477 302.6962 0023645  94.6413  15.6439 13.83859570466475
AO-27
1 22825U 93061C   22258.55397507  .00000066  00000-0  43438-4 0  9996
2 22825  98.8812 291.4705 0009108 143.6008 216.5794 14.30191067511031
IO-26
1 22826U 93061D   22258.55534910  .00000080  00000-0  48535-4 0  9997
2 22826  98.8757 291.3457 0009818 131.4295 228.7732 14.30539435511294
FO-29
1 24278U 96046B   22258.57008829 -.00000010  00000-0  23391-4 0  9990
2 24278  98.5157 269.8572 0351073  49.5913 313.5306 13.53120171287797
NOAA-15
1 25338U 98030A   22258.50329428  .00000114  00000-0  65716-4 0  9998
2 25338  98.6391 286.8393 0011027  40.5125 319.6874 14.26170532265851
GO-32
1 25397U 98043D   22258.45226399  .00000081  00000-0  55202-4 0  9996
2 25397  98.8253 209.1895 0001189 154.7300 205.3937 14.23770357256232
ISS
1 25544U 98067A   22258.46226600  .00008923  00000-0  16287-3 0  9994
2 25544  51.6424 249.3402 0002275 235.4273 225.0596 15.50222663359187
NO-44
1 26931U 01043C   22258.49051791  .00000139  00000-0  84842-4 0  9997
2 26931  67.0515 185.9921 0006130 257.5977 102.4438 14.30732602 94287
SO-50
1 27607U 02058C   22258.55871830  .00001025  00000-0  16028-3 0  9991
2 27607  64.5562  26.1402 0081411 277.1980  81.9872 14.76239977 61676
CO-55
1 27844U 03031E   22258.53181967  .00000253  00000-0  13291-3 0  9990
2 27844  98.6811 264.8662 0009439 194.8042 165.2860 14.22493033996673
CO-57
1 27848U 03031J   22258.52300503  .00000206  00000-0  11274-3 0  9999
2 27848  98.6854 265.3578 0009090 209.8629 150.2031 14.22044668996486
RS-22
1 27939U 03042A   22258.54237472  .00000958  00000-0  17783-3 0  9993
2 27939  98.2055  39.3058 0011674 285.0335  74.9593 14.67461897 14256
NOAA-18
1 28654U 05018A   22258.50535308  .00000168  00000-0  11468-3 0  9995
2 28654  98.9423 328.8427 0015239  78.7390 281.5493 14.12775872892690
CO-58
1 28895U 05043F   22258.30148388  .00001334  00000-0  26048-3 0  9992
2 28895  98.1186  28.3594 0015898 214.9267 145.0894 14.64472818900566
Falconsat-3
1 30776U 07006E   22258.51036288  .00058423  00000-0  69577-3 0  9997
2 30776  35.4307  27.6530 0001186 110.6097 249.4764 15.59968594863622
CO-65
1 32785U 08021C   22258.43583435  .00002599  00000-0  27583-3 0  9993
2 32785  97.6670 226.4897 0011132 299.8909  60.1203 14.89859460779889
AAUSAT2
1 32788U 08021F   22258.49345560  .00005645  00000-0  48100-3 0  9990
2 32788  97.5410 240.6892 0011554 169.6815 190.4648 14.98090731781919
DO-64
1 32789U 08021G   22258.52698365  .00015514  00000-0  81858-3 0  9992
2 32789  97.3358 281.6580 0010184  23.7515 336.4186 15.15586429785561
CO-66
1 32791U 08021J   22258.39338006  .00004287  00000-0  41659-3 0  9993
2 32791  97.6206 231.8493 0011051 247.3785 112.6266 14.93064621780610
RS-30
1 32953U 08025A   22258.35820864  .00000024  00000-0  10000-3 0  9992
2 32953  82.5021 128.0408 0020233  63.7490 296.5668 12.43113114649501
PRISM
1 33493U 09002B   22258.52531169  .00006471  00000-0  51765-3 0  9999
2 33493  98.2387 250.2722 0013476 247.9125 112.0666 15.00511952742488
NOAA-19
1 33591U 09005A   22258.51680167  .00000142  00000-0  10190-3 0  9999
2 33591  99.1414 294.5180 0012986 296.9350  63.0494 14.12609095700909
SRMSAT
1 37841U 11058D   22258.51057275  .00000400  00000-0  74676-4 0  9997
2 37841  19.9726  70.5466 0011807 253.7577 144.4608 14.10771231563974
HRBE
1 37855U 11061F   22258.44088703  .00020562  00000-0  86439-3 0  9998
2 37855 101.7212  65.3088 0149176 152.5892 208.3296 15.13885025594842
RS-40
1 38735U 12041C   22258.51296725  .00000006  00000-0 -30646-4 0  9990
2 38735  82.4771 209.3364 0017000 170.9422 189.1973 12.42586792459706
ZACUBE-1
1 39417U 13066B   22258.47513697  .00002360  00000-0  29081-3 0  9995
2 39417  97.6460 225.9632 0059066 108.8734 251.8897 14.82591007476468
Delfi-N3xt
1 39428U 13066N   22258.35004296  .00005167  00000-0  79220-3 0  9992
2 39428  97.8148 188.8624 0116692 351.2743   8.6433 14.69525355471733
GOMX-1
1 39430U 13066Q   22258.49177693  .00001095  00000-0  20179-3 0  9997
2 39430  97.8009 160.5242 0150075 120.6417 240.9697 14.60349558469431
LO-74
1 39440U 13066AA  22258.41443414  .00001768  00000-0  24447-3 0  9996
2 39440  97.7342 212.2378 0077731 198.5810 161.2559 14.77248537473568
AO-73
1 39444U 13066AE  22258.42478672  .00003364  00000-0  40100-3 0  9993
2 39444  97.6339 228.3342 0057998  96.9905 263.7911 14.83725257474865
SPROUT
1 39770U 14029E   22258.28963671  .00007913  00000-0  78881-3 0  9998
2 39770  97.9499  15.8763 0009546 148.0362 212.1703 14.91815967451055
DTUSAT-2
1 40030U 14033W   22258.35955332  .00003596  00000-0  37584-3 0  9995
2 40030  97.9385 191.5115 0013057 114.3299 245.9283 14.90254357447039
EO-80
1 40032U 14033Y   22258.53488899  .00002503  00000-0  26367-3 0  9990
2 40032  97.9390 191.7024 0012940 114.7602 245.4963 14.90227798447039
HODOYOSHI-1
1 40299U 14070B   22258.63746796  .00006152  00000-0  22969-3 0  9998
2 40299  97.2359 324.1167 0012420 169.8524 348.0935 15.27664083436826
FIREBIRD FU3
1 40377U 15003B   22258.49975782  .00023156  00000-0  64515-3 0  9991
2 40377  99.0847 143.6106 0096608  79.7247 281.4865 15.32163978422193
FIREBIRD FU4
1 40378U 15003C   22258.25818167  .00030034  00000-0  83250-3 0  9999
2 40378  99.0852 143.5458 0096519  80.1813 281.0305 15.32265039422168
GRIFEX
1 40379U 15003D   22258.53894219  .00013750  00000-0  46649-3 0  9990
2 40379  99.0981 128.7760 0113091 124.3946 236.8043 15.24678388421348
XW-2A
1 40903U 15049E   22258.62195475  .00030683  00000-0  42484-3 0  9998
2 40903  97.1696 317.4520 0010142 139.7583  16.2261 15.56990027393278
XW-2C
1 40906U 15049H   22258.56031172  .00006564  00000-0  30843-3 0  9994
2 40906  97.4965 261.3116 0015062  50.2136  67.8152 15.19843689386608
XW-2D
1 40907U 15049J   22258.60363722  .00007758  00000-0  35599-3 0  9998
2 40907  97.4954 261.4186 0014358  45.6330  50.9749 15.20611782386666
LILACSAT-2
1 40908U 15049K   22258.59233674  .00003822  00000-0  20055-3 0  9998
2 40908  97.5206 258.3247 0016864  66.9277  51.4895 15.16225500386146
XW-2E
1 40909U 15049L   22258.54316501  .00012002  00000-0  48368-3 0  9992
2 40909  97.4660 266.1026 0012486  27.5234  70.9695 15.24918087387136
XW-2F
1 40910U 15049M   22258.57154735  .00012000  00000-0  49126-3 0  9997
2 40910  97.4742 265.2872 0013484  28.6847  88.8760 15.24380463386905
XW-2B
1 40911U 15049N   22258.57343779  .00007494  00000-0  34525-3 0  9994
2 40911  97.4944 261.9591 0014229  47.9620  68.2827 15.20487488386549
DCBB
1 40912U 15049P   22258.58314910  .00013779  00000-0  51035-3 0  9999
2 40912  97.4364 269.6470 0011692 354.2954 121.9258 15.27703009387501
TW-1A
1 40928U 15051D   22258.56469215  .00072270  00000-0  66629-3 0  9992
2 40928  97.0321 280.8448 0007930  63.6721  98.3726 15.67358960392318
IO-86
1 40931U 15052B   22258.40432659  .00001121  00000-0  66501-4 0  9999
2 40931   5.9989 247.3894 0013539   2.5401 357.5118 14.76859779376660
AO-85
1 40967U 15058D   22257.18389412  .00001390  00000-0  16424-3 0  4784
2 40967  64.7751 161.9330 0183681 171.5528 188.8745 14.77697484 73779
ATHENOXAT-1
1 41168U 15077C   22258.35056863  .00019403  00000-0  76669-3 0  9999
2 41168  14.9828 143.1213 0009503  59.6790  87.8354 15.22927300374024
ChubuSat-2
1 41338U 16012B   22258.14421558  .00003123  00000-0  22814-3 0  9997
2 41338  31.0023 172.6973 0013363 321.9362  38.0330 15.01642153360977
ChubuSat-3
1 41339U 16012C   22258.13299529  .00002248  00000-0  16214-3 0  9992
2 41339  31.0110 169.6790 0013494 331.2099  28.7794 15.01696564360979
Horyu-4
1 41340U 16012D   22258.06207833  .00004714  00000-0  32849-3 0  9995
2 41340  31.0038 146.6587 0013089  11.1143 348.9781 15.03765832361222
e-st@r-II
1 41459U 16025D   22258.41803848  .00009898  00000-0  41478-3 0  9993
2 41459  98.1927  70.3955 0139983 323.9124  35.2763 15.15191101351119
AAUSAT4
1 41460U 16025E   22258.41435278  .00019341  00000-0  69553-3 0  9991
2 41460  98.1833  77.4779 0118350 296.9049  62.0179 15.22207208351617
LO-87
1 41557U 16033B   22258.49708775  .00017006  00000-0  47653-3 0  9993
2 41557  97.3904 356.4723 0011347  60.4055   5.3510 15.36614276351208
NuSat2
1 41558U 16033C   22258.49115002  .00017117  00000-0  45155-3 0  9997
2 41558  97.4122   2.6758 0010584  49.1392  81.4555 15.38493122351481
Lapan A3
1 41603U 16040E   22258.45301788  .00001464  00000-0  69126-4 0  9993
2 41603  97.1998 291.5397 0012407 197.5324 282.8767 15.20875536345712
